Location: Fort Wayne
(41.1310°N, 85.1290°W)
Time: 04:40:44
(UTC-04:00)

Cosmos 1000 Rocket - Visible Passes

Search period start: 23 May 2017 00:00
Search period end: 02 June 2017 00:00
Orbit: 955 x 991 km, 82.9° (Epoch: 22 May)

Date Brightness Start Highest point End Pass type
(mag) Time Alt. Az. Time Alt. Az. Time Alt. Az.
23 May 5.5 01:42:53 33° ESE 01:43:42 34° E 01:49:17 10° NNE visible
23 May 5.3 03:27:29 32° WSW 03:28:56 36° WNW 03:34:44 10° N visible
24 May 4.6 02:07:24 57° SE 02:08:10 61° E 02:14:24 10° NNE visible
24 May 6.0 03:52:01 18° W 03:53:58 21° WNW 03:58:38 10° NNW visible
25 May 6.4 00:47:18 15° E 00:48:19 16° E 00:51:48 10° NE visible
25 May 4.4 02:31:55 65° SW 02:32:48 77° W 02:39:10 10° N visible
25 May 6.6 04:17:15 10° W 04:19:14 11° WNW 04:21:14 10° NW visible
26 May 5.7 01:11:48 27° E 01:12:34 28° E 01:17:49 10° NNE visible
26 May 5.1 02:56:25 40° WSW 02:57:36 44° WNW 03:03:38 10° N visible
27 May 4.9 01:36:18 48° ESE 01:36:59 50° E 01:43:04 10° NNE visible
27 May 5.8 03:20:54 23° W 03:22:36 25° WNW 03:27:43 10° NNW visible
28 May 6.5 00:16:10 12° E 00:17:16 12° ENE 00:19:40 10° NE visible
28 May 4.3 02:00:46 71° S 02:01:33 88° E 02:07:56 10° N visible
28 May 6.5 03:45:23 12° W 03:47:46 14° WNW 03:51:02 10° NNW visible
29 May 5.9 00:40:38 23° E 00:41:27 23° E 00:46:15 10° NE visible
29 May 4.8 02:25:14 48° WSW 02:26:18 53° WNW 02:32:30 10° N visible
30 May 5.1 01:05:05 40° ESE 01:05:48 41° E 01:11:41 10° NNE visible
30 May 5.6 02:49:41 27° W 02:51:13 30° WNW 02:56:44 10° NNW visible
31 May 4.4 01:29:32 65° SE 01:30:20 74° E 01:36:40 10° N visible
31 May 6.3 03:14:08 15° W 03:16:20 17° WNW 03:20:24 10° NNW visible
01 Jun 6.1 00:09:22 18° E 00:10:21 19° E 00:14:36 10° NE visible
01 Jun 4.6 01:53:58 56° SW 01:55:01 64° W 02:01:20 10° N visible
